When you browse on this site, cookies collect data to enhance your experience and personalize the content and advertising you see.
Visit our Privacy Policy to learn more. By continuing to use the site, you agree to this use of cookies and data.
  • en Suisse
  • Liste des pays
  • À 7 jours
  • Température de l'eau
  • Carte météo
  • Widgets météo
  • user-avatar
    Se connecter

    Météo par heure à Innsbruck

    Ce jour, 26 Août, Lundi

    Heure Température Précipitation Vent Pression Humidité
    00:00 +8°C° 0 mm 1 m/s 600 mmHg 89%
    01:00 +8°C° 0 mm 1 m/s 600 mmHg 89%
    02:00 +8°C° 0 mm 1 m/s 600 mmHg 89%
    03:00 +7°C° 0 mm 1 m/s 599 mmHg 89%
    04:00 +7°C° 0 mm 1 m/s 599 mmHg 89%
    05:00 +9°C° 0 mm 1 m/s 600 mmHg 87%
    06:00 +10°C° 0 mm 1 m/s 601 mmHg 84%
    07:00 +11°C° 0 mm 1 m/s 601 mmHg 82%
    08:00 +13°C° 0.2 mm 1 m/s 602 mmHg 75%
    09:00 +15°C° 0.2 mm 1 m/s 603 mmHg 69%
    10:00 +18°C° 0.2 mm 1 m/s 603 mmHg 62%
    11:00 +18°C° 1 mm 1 m/s 603 mmHg 62%
    12:00 +19°C° 1 mm 1 m/s 603 mmHg 61%
    13:00 +19°C° 1 mm 1 m/s 603 mmHg 61%
    14:00 +18°C° 1.5 mm 1 m/s 603 mmHg 67%
    15:00 +16°C° 1.5 mm 1 m/s 602 mmHg 74%
    16:00 +15°C° 1.5 mm 1 m/s 602 mmHg 80%
    17:00 +14°C° 1 mm 1 m/s 601 mmHg 83%
    18:00 +13°C° 1 mm 1 m/s 601 mmHg 86%
    19:00 +11°C° 1 mm 1 m/s 600 mmHg 89%
    20:00 +10°C° 0.1 mm 1 m/s 600 mmHg 88%
    21:00 +10°C° 0.1 mm 1 m/s 600 mmHg 88%
    22:00 +9°C° 0.1 mm 1 m/s 600 mmHg 87%
    23:00 +9°C° 0 mm 1 m/s 600 mmHg 87%

    Demain, 27 Août, Mardi

    Heure Température Précipitation Vent Pression Humidité
    00:00 +8°C° 0 mm 1 m/s 599 mmHg 86%
    01:00 +8°C° 0 mm 1 m/s 599 mmHg 86%
    02:00 +8°C° 0 mm 1 m/s 599 mmHg 86%
    03:00 +8°C° 0 mm 1 m/s 599 mmHg 86%
    04:00 +8°C° 0 mm 1 m/s 599 mmHg 86%
    05:00 +9°C° 0 mm 1 m/s 599 mmHg 84%
    06:00 +10°C° 0 mm 1 m/s 600 mmHg 82%
    07:00 +11°C° 0 mm 1 m/s 601 mmHg 80%
    08:00 +14°C° 0 mm 1 m/s 602 mmHg 71%
    09:00 +16°C° 0 mm 1 m/s 603 mmHg 62%
    10:00 +19°C° 0 mm 1 m/s 604 mmHg 52%
    11:00 +20°C° 0 mm 1 m/s 604 mmHg 49%
    12:00 +21°C° 0 mm 1 m/s 604 mmHg 45%
    13:00 +22°C° 0 mm 1 m/s 604 mmHg 42%
    14:00 +21°C° 0.2 mm 1 m/s 604 mmHg 44%
    15:00 +21°C° 0.2 mm 1 m/s 604 mmHg 46%
    16:00 +20°C° 0.2 mm 1 m/s 603 mmHg 49%
    17:00 +18°C° 0.1 mm 1 m/s 602 mmHg 60%
    18:00 +14°C° 0.1 mm 1 m/s 601 mmHg 71%
    19:00 +11°C° 0.1 mm 0 m/s 600 mmHg 83%
    20:00 +11°C° 0 mm 1 m/s 600 mmHg 84%
    21:00 +11°C° 0 mm 1 m/s 600 mmHg 85%
    22:00 +10°C° 0 mm 1 m/s 600 mmHg 86%
    23:00 +10°C° 0 mm 1 m/s 600 mmHg 86%

    Après-demain, 28 Août, Mercredi

    Heure Température Précipitation Vent Pression Humidité
    00:00 +10°C° 0 mm 1 m/s 600 mmHg 86%
    01:00 +10°C° 0 mm 1 m/s 600 mmHg 85%
    02:00 +10°C° 0 mm 1 m/s 600 mmHg 86%
    03:00 +9°C° 0 mm 1 m/s 600 mmHg 86%
    04:00 +9°C° 0 mm 1 m/s 599 mmHg 86%
    05:00 +10°C° 0 mm 1 m/s 600 mmHg 84%
    06:00 +11°C° 0 mm 1 m/s 601 mmHg 82%
    07:00 +12°C° 0 mm 1 m/s 601 mmHg 79%
    08:00 +14°C° 0 mm 1 m/s 602 mmHg 72%
    09:00 +16°C° 0 mm 1 m/s 603 mmHg 65%
    10:00 +19°C° 0 mm 1 m/s 603 mmHg 58%
    11:00 +20°C° 0 mm 1 m/s 603 mmHg 55%
    12:00 +20°C° 0 mm 1 m/s 603 mmHg 51%
    13:00 +21°C° 0 mm 1 m/s 603 mmHg 48%
    14:00 +20°C° 0.3 mm 1 m/s 603 mmHg 52%
    15:00 +20°C° 0.3 mm 1 m/s 603 mmHg 56%
    16:00 +18°C° 0.3 mm 2 m/s 602 mmHg 60%
    17:00 +16°C° 0.4 mm 1 m/s 601 mmHg 69%
    18:00 +14°C° 0.4 mm 1 m/s 600 mmHg 78%
    19:00 +12°C° 0.4 mm 1 m/s 599 mmHg 87%
    20:00 +11°C° 0.1 mm 1 m/s 599 mmHg 86%
    21:00 +10°C° 0.1 mm 1 m/s 599 mmHg 86%
    22:00 +9°C° 0.1 mm 2 m/s 599 mmHg 85%
    23:00 +9°C° 0 mm 2 m/s 599 mmHg 85%

    29 Août, Jeudi

    Heure Température Précipitation Vent Pression Humidité
    00:00 +8°C° 0 mm 2 m/s 599 mmHg 84%
    01:00 +8°C° 0 mm 2 m/s 599 mmHg 83%
    02:00 +9°C° 0 mm 1 m/s 599 mmHg 83%
    03:00 +8°C° 0 mm 1 m/s 598 mmHg 83%
    04:00 +8°C° 0 mm 1 m/s 598 mmHg 83%
    05:00 +9°C° 0 mm 1 m/s 599 mmHg 81%
    06:00 +11°C° 0 mm 1 m/s 599 mmHg 79%
    07:00 +12°C° 0 mm 1 m/s 600 mmHg 78%
    08:00 +14°C° 0.1 mm 1 m/s 601 mmHg 71%
    09:00 +16°C° 0.1 mm 1 m/s 602 mmHg 64%
    10:00 +19°C° 0.1 mm 1 m/s 603 mmHg 58%
    11:00 +19°C° 0.7 mm 1 m/s 603 mmHg 59%
    12:00 +19°C° 0.7 mm 1 m/s 603 mmHg 61%
    13:00 +18°C° 0.7 mm 2 m/s 602 mmHg 62%
    14:00 +17°C° 1.1 mm 2 m/s 602 mmHg 67%
    15:00 +16°C° 1.1 mm 2 m/s 602 mmHg 72%
    16:00 +16°C° 1.1 mm 2 m/s 602 mmHg 77%
    17:00 +14°C° 0.8 mm 1 m/s 601 mmHg 82%
    18:00 +13°C° 0.8 mm 1 m/s 601 mmHg 86%
    19:00 +12°C° 0.8 mm 1 m/s 600 mmHg 90%
    20:00 +11°C° 0.1 mm 1 m/s 600 mmHg 89%
    21:00 +11°C° 0.1 mm 1 m/s 600 mmHg 88%
    22:00 +10°C° 0.1 mm 1 m/s 600 mmHg 87%
    23:00 +10°C° 0 mm 1 m/s 600 mmHg 88%

    30 Août, Vendredi

    Heure Température Précipitation Vent Pression Humidité
    00:00 +9°C° 0 mm 1 m/s 599 mmHg 88%
    01:00 +9°C° 0 mm 1 m/s 599 mmHg 89%
    02:00 +8°C° 0 mm 1 m/s 599 mmHg 90%
    03:00 +8°C° 0 mm 1 m/s 599 mmHg 91%
    04:00 +8°C° 0 mm 1 m/s 599 mmHg 92%
    05:00 +9°C° 0 mm 1 m/s 599 mmHg 90%
    06:00 +10°C° 0 mm 1 m/s 600 mmHg 89%
    07:00 +11°C° 0 mm 1 m/s 601 mmHg 88%
    08:00 +13°C° 0.2 mm 1 m/s 601 mmHg 83%
    09:00 +14°C° 0.2 mm 1 m/s 602 mmHg 78%
    10:00 +16°C° 0.2 mm 1 m/s 603 mmHg 73%
    11:00 +16°C° 1 mm 1 m/s 603 mmHg 71%
    12:00 +18°C° 1 mm 1 m/s 603 mmHg 69%
    13:00 +18°C° 1 mm 1 m/s 603 mmHg 67%
    14:00 +16°C° 1.5 mm 1 m/s 602 mmHg 73%
    15:00 +15°C° 1.5 mm 1 m/s 601 mmHg 79%
    16:00 +15°C° 1.5 mm 1 m/s 601 mmHg 85%
    17:00 +14°C° 1.5 mm 1 m/s 601 mmHg 87%
    18:00 +12°C° 1.5 mm 1 m/s 600 mmHg 89%
    19:00 +11°C° 1.5 mm 1 m/s 600 mmHg 92%
    20:00 +11°C° 0.3 mm 1 m/s 600 mmHg 91%
    21:00 +11°C° 0.3 mm 1 m/s 600 mmHg 90%
    22:00 +10°C° 0.3 mm 1 m/s 600 mmHg 89%
    23:00 +10°C° 0 mm 1 m/s 600 mmHg 89%

    31 Août, Samedi

    Heure Température Précipitation Vent Pression Humidité
    00:00 +9°C° 0 mm 1 m/s 599 mmHg 89%
    01:00 +8°C° 0 mm 1 m/s 598 mmHg 89%
    02:00 +8°C° 0 mm 1 m/s 598 mmHg 88%
    03:00 +8°C° 0 mm 1 m/s 598 mmHg 88%
    04:00 +8°C° 0 mm 1 m/s 598 mmHg 87%
    05:00 +9°C° 0 mm 1 m/s 598 mmHg 86%
    06:00 +10°C° 0 mm 1 m/s 599 mmHg 85%
    07:00 +11°C° 0 mm 1 m/s 599 mmHg 84%
    08:00 +13°C° 0 mm 1 m/s 600 mmHg 76%
    09:00 +15°C° 0 mm 1 m/s 601 mmHg 67%
    10:00 +19°C° 0 mm 1 m/s 602 mmHg 59%
    11:00 +19°C° 0.3 mm 1 m/s 602 mmHg 57%
    12:00 +20°C° 0.3 mm 1 m/s 602 mmHg 55%
    13:00 +21°C° 0.3 mm 1 m/s 602 mmHg 54%
    14:00 +20°C° 0.8 mm 1 m/s 601 mmHg 58%
    15:00 +19°C° 0.8 mm 1 m/s 601 mmHg 63%
    16:00 +17°C° 0.8 mm 2 m/s 600 mmHg 67%
    17:00 +16°C° 1 mm 1 m/s 600 mmHg 74%
    18:00 +14°C° 1 mm 1 m/s 599 mmHg 81%
    19:00 +12°C° 1 mm 1 m/s 598 mmHg 88%
    20:00 +12°C° 0.8 mm 1 m/s 598 mmHg 90%
    21:00 +11°C° 0.8 mm 1 m/s 599 mmHg 91%
    22:00 +11°C° 0.8 mm 1 m/s 599 mmHg 92%
    23:00 +11°C° 0.1 mm 1 m/s 598 mmHg 92%
    Voir plus